Погода в Сбеге

Россия / Забайкальский край     53°18′59″N   118°30′56″E
темп.,
°C
ветер,
м/с
пор.,
м/с
влажн.,
%
обл.,
%
осадки,
мм/ч
давл.,
гПа
погр.,
м
28 июня, вт
вт2800:00+18юз1165100 0.0 100111
03:00+15з117521 0.0 100110
06:00+15з11796 0.0 100112
09:00+23сз11525 0.0 1001449
12:00+29ссв12365 0.0 9991717
15:00+29зсз1335100 0.0 9981743
18:00+30св233151 0.0 9982418
21:00+22св116395 0.0 100011
29 июня, ср
ср2900:00+17ссз11765 0.0 100211
03:00+15с118232 0.0 100311
06:00+16ссз118027 0.0 100518
09:00+24ююв005278 0.0 1004381
12:00+31вюв00346 0.0 10031188
15:00+33в122895 0.0 10022519
18:00+31в223328 0.0 10021187
21:00+23вюв116146 0.0 100411
30 июня, чт
чт3000:00+20вюв006992 0.0 100511
03:00+21в116589 0.0 100611
06:00+19св117636 0.0 100711
09:00+26юв13471 0.0 1006550
12:00+32юв24317 0.0 10051809
15:00+33ююз332898 0.0 10033127
18:00+31ююв243154 0.0 1003924
21:00+21ююв116996 0.2 100511
1 июля, пт
пт100:00+18ююз11782 0.0 100512
03:00+16юв11915 0.0 100611
06:00+16зюз01885 0.0 100730
09:00+24ююз12555 0.0 1006483
12:00+30ю24375 0.0 10041556
15:00+33ююз35290 0.0 10012847
18:00+33юз44280 0.0 9992461
21:00+24зюз11580 0.0 99911
2 июля, сб
сб200:00+19юв1185100 0.6 100212
03:00+17всв1196100 1.1 100211
06:00+17ююв1196100 0.0 100221
09:00+22ю127479 0.0 1002522
12:00+29зюз234297 0.0 10001292
15:00+33ююз2525100 0.0 9983186
18:00+33юз342269 0.0 9962158
21:00+24ссв114930 0.0 99711